Location: Corralito
(10.2667°N, 66.9500°W)
Time: 13:12:26
(UTC+00:00)

GPS 2-12 Rocket1 - Pass Details

Date: 16 December 2023
Orbit: 576 x 637 km, 20.0° (Epoch: 04 March)

Event Time Altitude Azimuth Distance (km) Brightness Sun altitude
Rises 00:37:36 0° 286° (WNW) 2,920 7.2 -34.8°
Reaches altitude 10° 00:40:18 10° 299° (WNW) 2,012 6.1 -35.4°
Enters shadow 00:40:26 11° 300° (WNW) 1,971 6.0 -35.5°
